Regional Weather Roundup
Issued by NWS

Home | Current Version | Previous Version | Text Only | Print | Product List | Glossary Off
Versions: 1 2 3 4 5 6 7 8 9 10 11 12 13 14 15 16 17 18 19 20 21 22 23 24 25 26 27 28 29 30 31 32 33 34 35 36 37 38 39 40 41 42 43 44 45 46 47 48 49 50

000
ASUS43 KFSD 010902
RWRSD

WEATHER ROUNDUP FOR SOUTH DAKOTA
NATIONAL WEATHER SERVICE SIOUX FALLS SD
400 AM CDT TUE SEP 01 2015

NOTE: "FAIR" INDICATES FEW OR NO CLOUDS BELOW 12,000 FEET WITH NO
SIGNIFICANT WEATHER AND/OR OBSTRUCTIONS TO VISIBILITY.


SDZ001>005-009-010-012>017-011000-
NORTHWEST AND NORTH CENTRAL SOUTH DAKOTA

CITY           SKY/WX    TMP DP  RH WIND       PRES   REMARKS
BUFFALO          N/A     60  53  77 S5        29.85S
FAITH            N/A     62  56  80 SE9       29.90S
MOBRIDGE       PTCLDY    57  56  96 E3        29.87S
$$

SDZ012>016-024>037-041>051-057-063-072>074-011000-
SOUTHWEST AND SOUTH CENTRAL SOUTH DAKOTA

CITY           SKY/WX    TMP DP  RH WIND       PRES   REMARKS
RAPID CTY ARPT CLEAR     56  55  97 SE9       29.89F
PIERRE         MOCLDY    59  57  93 NE5       29.88F
CUSTER         CLEAR     56  46  69 W3        30.04F
ELLSWORTH AFB  CLEAR     59  58  94 SE7       29.89R
PHILIP         PTCLDY    64  61  90 E6        29.89F
PINE RIDGE     CLEAR     64  51  62 W3        29.93F
WINNER         FAIR      65  60  84 NW6       29.90F
$$

SDZ004>011-016>023-039-040-011000-
NORTHEAST SOUTH DAKOTA

CITY           SKY/WX    TMP DP  RH WIND       PRES   REMARKS
ABERDEEN       CLOUDY    59  58  96 NE5       29.88F
WATERTOWN      CLOUDY    67  65  93 CALM      29.90R
BROOKINGS      CLOUDY    70  66  88 SE5       29.91F
$$

SDZ017-020-022-023-036>040-048>070-011000-
SOUTHEAST SOUTH DAKOTA

CITY           SKY/WX    TMP DP  RH WIND       PRES   REMARKS
SIOUX FALLS    MOCLDY    71  67  87 SE3       29.89F
HURON          CLOUDY    64  63  96 NW6       29.87S
CHAMBERLAIN    CLOUDY    64  63  97 CALM      29.89F
MITCHELL       CLOUDY    66  65  96 CALM      29.88S
YANKTON        MOCLDY    66  64  94 E6        29.86F
$$

ABBREVIATIONS USED IN REMARKS
   TC - TEMPERATURE IN CELSIUS
  WCI - WIND CHILL INDEX
   HX - HEAT INDEX
  VSB - VISIBILITY



USA.gov is the U.S. government's official web portal to all federal, state and local government web resources and services.